Home > Weather > Jalpaiguri > Past weeks

Flag for India Weather for the Past 2 Weeks in Jalpaiguri, West Bengal, India

Now
70 °F

Haze.


Feels Like: 70 °F
Forecast: 59 / 76 °F
Wind: 2 mph from North

Location: Lucknow / Amausi

Current Time: Feb 9, 2016 at 12:06:31 PM

Latest Report: Feb 9, 2016 at 11:00 AM


Visibility: 1 mi

Pressure: 30.01 "Hg

Humidity: 69%

Dew point: 59 °F

Location of JalpaiguriLocation

Historic Weather in Jalpaiguri — Graph

°F

Jalpaiguri Temperature Yesterday

Maximum temperature yesterday: 75 °F (at 1:30 PM)
Minimum temperature yesterday: 59 °F (at 11:00 PM)
Average temperature yesterday: 70 °F

High & Low Weather Summary for the Past Weeks

 TemperatureHumidityPressure
High82 °F (Jan 31, 2:00 PM)100% (Jan 27, 6:00 AM)30.09 "Hg (Jan 27, 6:00 AM)
Low45 °F (Jan 27, 7:00 AM)29% (Feb 2, 1:30 PM)29.86 "Hg (Jan 30, 3:00 PM)
Average64 °F65%29.98 "Hg
* Reported Jan 25 9:30 AM — Feb 9 10:00 AM, Jalpaiguri, Weather by CustomWeather, © 2016

Note: Actual official high and low records may vary slightly from our data, if they occured in-between our weather recording intervals... More about our weather records

Advertising

Jalpaiguri Weather History for the Previous 24 Hours

 ConditionsComfort  
Time TempWeatherWind HumidityBarometerVisibility
10:00 AM
Tue, Feb 9
63 °FFog.2 mph88%30.04 "Hg1 mi
9:00 AM55 °FFog.No wind100%30.04 "Hg1 mi
8:30 AM54 °FFog.No wind100%30.01 "Hg0 mi
8:00 AM54 °FFog.No wind94%30.01 "Hg0 mi
7:30 AM52 °FFog.No wind94%29.98 "Hg0 mi
7:00 AM52 °FFog.No wind94%29.98 "Hg0 mi
5:00 AM54 °FFog.No wind94%29.95 "Hg0 mi
4:00 AM55 °FFog.No wind94%29.95 "Hg1 mi
3:00 AM57 °FFog.No wind94%29.95 "Hg1 mi
2:00 AM57 °FFog.No wind94%29.95 "Hg1 mi
1:00 AM57 °FFog.2 mph94%29.98 "Hg1 mi
11:00 PM
Mon, Feb 8
59 °FFog.3 mph94%29.98 "Hg1 mi
10:00 PM63 °FFog.3 mph88%29.98 "Hg1 mi
9:00 PM64 °FFog.No wind83%29.98 "Hg1 mi
8:30 PM64 °FHaze.2 mph83%29.98 "Hg1 mi
8:00 PM66 °FHaze.3 mph78%29.98 "Hg1 mi
7:30 PM68 °FHaze.9 mph73%29.98 "Hg1 mi
7:00 PM68 °FHaze.7 mph78%29.95 "Hg1 mi
6:30 PM68 °FHaze.5 mph78%29.95 "Hg1 mi
6:00 PM70 °FHaze.5 mph73%29.95 "Hg1 mi
5:00 PM73 °FHaze.6 mph65%29.95 "Hg1 mi
4:30 PM75 °FHaze.6 mph61%29.92 "Hg2 mi
4:00 PM75 °FHaze.7 mph61%29.92 "Hg2 mi
3:30 PM75 °FHaze.7 mph61%29.92 "Hg2 mi
3:00 PM75 °FHaze.6 mph61%29.95 "Hg2 mi
2:30 PM75 °FHaze.3 mph57%29.95 "Hg1 mi
1:30 PM75 °FHaze.2 mph57%29.95 "Hg1 mi
1:00 PM73 °FHaze.3 mph61%29.98 "Hg1 mi
12:30 PM72 °FHaze.5 mph65%29.98 "Hg1 mi
12:00 PM72 °FHaze.7 mph61%30.01 "Hg1 mi
Weather by CustomWeather, © 2016

See weather overviewHow to use our weather pages